Date String (YYYY-MM-DD hh:mm:ss) UTC,Instrument flags,Ambient pressure (hPa),Sample flow (lpm),Bypass flow (lpm),Sample temperature (°C),Ambient temperature (°C),ASC tube jacket temperature (°C),LED temperature (°C),Box temperature (°C),Sample RH (%),Span deviation,Mass concentration (μg/m³),Mass concentration (μg/m³),Mass concentration (μg/m³)
DateTimeUTC,F1_M11,P_M11,Q1_M11,Q2_M11,T1_M11,T2_M11,T3_M11,T4_M11,T5_M11,U1_M11,ZSPAN_M11,X2_M11,X0_M11,X1_M11
2021-12-30 14:00:00,,0811.8,5.01,0.00,21.7,21.0,00.0,30.8,23.2,08.7,0000.0,0000.25,0002.33,0000.12
2021-12-30 14:01:00,,0811.7,4.99,0.00,21.6,20.9,00.0,30.8,23.2,08.7,0000.0,0000.26,0002.86,0000.12
2021-12-30 14:02:00,,0811.6,5.00,0.00,21.6,20.8,00.0,30.7,23.1,08.7,0000.0,0000.27,0002.87,0000.12
2021-12-30 14:03:00,,0811.6,5.01,0.00,21.5,20.7,00.0,30.7,23.0,08.6,0000.0,0000.29,0002.93,0000.13
2021-12-30 14:04:00,,0811.6,4.98,0.00,21.6,21.3,00.0,30.7,23.2,08.6,0000.0,0000.29,0002.89,0000.13
2021-12-30 14:05:00,,0811.5,5.00,0.00,21.7,22.3,00.0,30.8,23.5,08.6,0000.0,0000.27,0003.33,0000.13
2021-12-30 14:06:00,,0811.5,5.00,0.00,21.9,22.8,00.0,30.8,23.8,08.6,0000.0,0000.29,0003.46,0000.13
2021-12-30 14:07:00,,0811.3,5.00,0.00,21.9,22.5,00.0,30.8,23.8,08.7,0000.0,0000.30,0003.51,0000.13
2021-12-30 14:08:00,,0811.2,5.00,0.00,21.9,22.1,00.0,30.8,23.6,08.7,0000.0,0000.30,0004.13,0000.13
2021-12-30 14:09:00,,0811.0,5.01,0.00,21.8,21.8,00.0,30.8,23.4,08.7,0000.0,0000.28,0004.08,0000.14
2021-12-30 14:10:00,,0810.9,5.00,0.00,21.8,21.6,00.0,30.8,23.3,08.7,0000.0,0000.30,0004.10,0000.15
2021-12-30 14:11:00,,0811.0,5.00,0.00,21.7,21.2,00.0,30.8,23.2,08.7,0000.0,0000.31,0003.66,0000.16
2021-12-30 14:12:00,,0810.9,4.99,0.00,21.6,21.0,00.0,30.8,23.1,08.8,0000.0,0000.34,0003.77,0000.15
2021-12-30 14:13:00,,0810.5,5.00,0.00,21.5,20.8,00.0,30.7,23.0,08.9,0000.0,0000.35,0003.88,0000.15
2021-12-30 14:14:00,,0810.3,5.00,0.00,21.4,20.5,00.0,30.7,22.8,09.1,0000.0,0000.45,0006.32,0000.16
2021-12-30 14:15:00,,0810.3,5.01,0.00,21.3,20.3,00.0,30.6,22.7,09.2,0000.0,0000.61,0010.43,0000.17
2021-12-30 14:16:00,,0810.3,4.98,0.00,21.3,20.7,00.0,30.6,22.8,09.2,0000.0,0000.67,0011.06,0000.18
2021-12-30 14:17:00,,0810.2,5.02,0.00,21.5,21.8,00.0,30.7,23.2,09.2,0000.0,0000.69,0010.53,0000.19
2021-12-30 14:18:00,,0810.0,4.98,0.00,21.6,22.7,00.0,30.7,23.6,09.2,0000.0,0000.74,0010.46,0000.19
2021-12-30 14:19:00,,0810.0,5.00,0.00,21.7,22.5,00.0,30.7,23.6,09.2,0000.0,0000.76,0010.09,0000.19
2021-12-30 14:20:00,,0809.9,5.00,0.00,21.7,22.0,00.0,30.7,23.4,09.3,0000.0,0000.81,0010.20,0000.18
2021-12-30 14:21:00,,0809.8,5.00,0.00,21.6,21.5,00.0,30.7,23.2,09.5,0000.0,0000.85,0010.26,0000.17
2021-12-30 14:22:00,,0809.6,5.00,0.00,21.5,21.1,00.0,30.7,23.0,09.5,0000.0,0000.86,0010.33,0000.17
2021-12-30 14:23:00,,0809.5,5.02,0.00,21.4,20.8,00.0,30.6,22.9,09.5,0000.0,0000.87,0010.13,0000.17
2021-12-30 14:24:00,,0809.5,4.99,0.00,21.3,20.5,00.0,30.6,22.7,09.5,0000.0,0000.89,0010.10,0000.18
2021-12-30 14:25:00,,0809.3,5.00,0.00,21.2,20.1,00.0,30.5,22.5,09.5,0000.0,0000.78,0008.38,0000.17
2021-12-30 14:26:00,,0809.3,5.00,0.00,21.1,20.3,00.0,30.5,22.5,09.6,0000.0,0000.64,0003.41,0000.16
2021-12-30 14:27:00,,0809.3,4.99,0.00,21.2,21.4,00.0,30.5,22.9,09.5,0000.0,0000.64,0003.13,0000.16
2021-12-30 14:28:00,,0809.1,5.00,0.00,21.4,22.4,00.0,30.6,23.2,09.3,0000.0,0000.65,0004.97,0000.16
2021-12-30 14:29:00,,0808.9,4.99,0.00,21.5,22.3,00.0,30.6,23.3,09.1,0000.0,0000.63,0005.63,0000.16
2021-12-30 14:30:00,,0809.0,5.00,0.00,21.5,21.8,00.0,30.6,23.1,09.0,0000.0,0000.72,0007.17,0000.17
2021-12-30 14:31:00,,0808.9,4.99,0.00,21.4,21.4,00.0,30.5,22.9,09.0,0000.0,0000.76,0007.64,0000.17
2021-12-30 14:32:00,,0808.9,5.00,0.00,21.3,20.9,00.0,30.5,22.7,09.0,0000.0,0000.75,0007.68,0000.18
2021-12-30 14:33:00,,0808.8,5.00,0.00,21.2,20.6,00.0,30.5,22.6,09.0,0000.0,0000.81,0007.93,0000.18
2021-12-30 14:34:00,,0808.9,4.99,0.00,21.1,20.4,00.0,30.4,22.5,09.1,0000.0,0000.84,0008.72,0000.18
2021-12-30 14:35:00,,0808.7,5.00,0.00,21.0,20.2,00.0,30.4,22.4,09.1,0000.0,0000.88,0009.13,0000.18
2021-12-30 14:36:00,,0808.8,5.01,0.00,21.0,20.3,00.0,30.3,22.4,08.9,0000.0,0001.03,0009.64,0000.18
2021-12-30 14:37:00,,0808.9,4.99,0.00,21.1,21.4,00.0,30.4,22.8,08.8,0000.0,0001.12,0009.82,0000.19
2021-12-30 14:38:00,,0808.9,5.01,0.00,21.3,22.4,00.0,30.4,23.2,08.7,0000.0,0001.18,0009.63,0000.19
2021-12-30 14:39:00,,0808.9,4.99,0.00,21.5,23.0,00.0,30.5,23.5,08.5,0000.0,0001.20,0008.95,0000.19
2021-12-30 14:40:00,,0809.0,5.00,0.00,21.6,22.6,00.0,30.5,23.4,08.6,0000.0,0001.25,0008.82,0000.19
2021-12-30 14:41:00,,0809.0,5.00,0.00,21.5,22.1,00.0,30.5,23.2,08.7,0000.0,0001.22,0008.03,0000.19
2021-12-30 14:42:00,,0809.1,5.00,0.00,21.4,21.5,00.0,30.5,22.9,08.8,0000.0,0001.22,0007.72,0000.19
2021-12-30 14:43:00,,0809.2,5.01,0.00,21.3,21.2,00.0,30.5,22.8,08.9,0000.0,0001.21,0008.13,0000.18
2021-12-30 14:44:00,,0809.2,4.99,0.00,21.2,20.9,00.0,30.4,22.6,09.0,0000.0,0001.17,0008.13,0000.17
2021-12-30 14:45:00,,0809.3,5.01,0.00,21.2,20.6,00.0,30.4,22.5,09.0,0000.0,0001.19,0008.47,0000.17
2021-12-30 14:46:00,,0809.4,5.00,0.00,21.1,20.3,00.0,30.4,22.4,09.0,0000.0,0001.20,0008.98,0000.17
2021-12-30 14:47:00,,0809.5,4.99,0.00,21.0,20.2,00.0,30.3,22.3,09.0,0000.0,0001.03,0008.76,0000.16
2021-12-30 14:48:00,,0809.7,5.02,0.00,21.0,20.6,00.0,30.3,22.4,09.1,0000.0,0000.94,0008.65,0000.15
2021-12-30 14:49:00,,0809.5,4.99,0.00,21.1,21.8,00.0,30.3,22.9,09.2,0000.0,0000.83,0008.33,0000.14
2021-12-30 14:50:00,,0809.8,5.01,0.00,21.4,22.7,00.0,30.4,23.3,09.0,0000.0,0000.78,0008.49,0000.13
2021-12-30 14:51:00,,0809.6,5.00,0.00,21.5,22.6,00.0,30.4,23.3,09.0,0000.0,0000.70,0008.26,0000.13
2021-12-30 14:52:00,,0809.9,5.00,0.00,21.5,22.1,00.0,30.4,23.2,09.0,0000.0,0000.62,0008.25,0000.12
2021-12-30 14:53:00,,0809.5,4.99,0.00,21.4,21.8,00.0,30.4,23.0,09.1,0000.0,0000.61,0009.21,0000.12
2021-12-30 14:54:00,,0809.3,5.00,0.00,21.4,21.5,00.0,30.4,23.0,09.2,0000.0,0000.66,0009.44,0000.13
2021-12-30 14:55:00,,0809.4,4.99,0.00,21.4,21.3,00.0,30.4,22.9,09.2,0000.0,0000.67,0009.20,0000.13
2021-12-30 14:56:00,,0809.2,5.00,0.00,21.3,21.0,00.0,30.4,22.8,09.2,0000.0,0000.57,0008.09,0000.13
2021-12-30 14:57:00,,0809.4,5.01,0.00,21.2,20.7,00.0,30.4,22.6,09.2,0000.0,0000.55,0007.94,0000.13
2021-12-30 14:58:00,,0809.6,4.99,0.00,21.2,20.6,00.0,30.4,22.5,09.4,0000.0,0000.60,0007.64,0000.13
2021-12-30 14:59:00,,0809.3,5.01,0.00,21.1,20.4,00.0,30.3,22.5,09.5,0000.0,0000.67,0007.77,0000.13
